Location: Wellington
(41.3000°S, 174.8000°E)
Time: 01:25:17
(UTC+13:00)

ISS - Visible Passes

Search period start: 17 December 2018 00:00
Search period end: 27 December 2018 00:00
Orbit: 401 x 408 km, 51.6° (Epoch: 17 December)

Date Brightness Start Highest point End Pass type
(mag) Time Alt. Az. Time Alt. Az. Time Alt. Az.
17 Dec -0.9 01:02:03 10° WSW 01:04:32 19° SSW 01:07:02 10° SSE visible
17 Dec -0.5 02:40:03 10° SSW 02:42:00 14° S 02:43:58 10° SE visible
17 Dec -1.6 04:16:18 10° SW 04:19:19 29° SSE 04:22:20 10° E visible
17 Dec -3.8 22:32:10 10° NW 22:35:25 58° NE 22:38:43 10° ESE visible
18 Dec -1.4 00:09:19 10° W 00:12:08 25° SSW 00:14:58 10° SE visible
18 Dec -0.4 01:47:36 10° SW 01:49:30 14° S 01:51:24 10° SSE visible
18 Dec -1.0 03:24:14 10° SW 03:26:56 21° SSE 03:29:37 10° ESE visible
18 Dec -3.8 05:00:23 10° SW 05:03:45 80° NW 05:07:06 10° NE visible
18 Dec -3.0 21:40:23 10° NNW 21:43:20 30° NE 21:46:18 10° ESE visible
18 Dec -2.1 23:16:40 10° W 23:19:46 35° SSW 23:22:54 10° SE visible
19 Dec -0.5 00:54:56 10° SW 00:57:00 15° S 00:59:03 10° SSE visible
19 Dec -0.7 02:32:09 10° SSW 02:34:29 17° SSE 02:36:49 10° ESE visible
19 Dec -3.0 04:08:12 10° SW 04:11:32 56° SSE 04:14:50 10° ENE visible
19 Dec -3.2 22:24:11 10° WNW 22:27:28 59° SSW 22:30:48 10° SE visible
20 Dec -0.7 00:02:09 10° WSW 00:04:30 17° SSW 00:06:51 10° SSE visible
20 Dec -0.5 01:39:57 10° SSW 01:41:59 15° S 01:44:01 10° SE visible
20 Dec -2.0 03:16:06 10° SW 03:19:14 34° SSE 03:22:20 10° E visible
20 Dec -3.1 04:52:39 10° WSW 04:55:42 32° NW 04:58:43 10° NNE visible
20 Dec -3.9 21:31:56 10° NW 21:35:14 75° NE 21:38:34 10° ESE visible
20 Dec -1.1 23:09:20 10° WSW 23:12:02 22° SSW 23:14:44 10° SE visible
21 Dec -0.4 00:47:33 10° SSW 00:49:27 14° S 00:51:20 10° SE visible
21 Dec -1.3 02:24:02 10° SW 02:26:50 24° SSE 02:29:38 10° ESE visible
21 Dec -3.9 04:00:14 10° WSW 04:03:34 63° NW 04:06:52 10° NE visible
21 Dec -1.7 22:16:36 10° W 22:19:37 31° SSW 22:22:39 10° SE visible
21 Dec -0.5 23:54:56 10° SW 23:56:54 15° S 23:58:52 10° SSE visible
22 Dec -0.9 01:31:55 10° SSW 01:34:22 18° SSE 01:36:49 10° ESE visible
22 Dec -3.5 03:07:59 10° SW 03:11:20 69° SSE 03:14:40 10° ENE visible
22 Dec -2.0 04:45:37 10° W 04:47:26 14° NW 04:49:15 10° NNW visible
22 Dec -2.6 21:24:00 10° WNW 21:27:15 48° SSW 21:30:31 10° SE visible
22 Dec -0.6 23:02:08 10° SW 23:04:21 16° SSW 23:06:35 10° SSE visible
23 Dec -0.6 00:39:44 10° SSW 00:41:50 15° S 00:43:57 10° SE visible
23 Dec -2.4 02:15:48 10° SW 02:19:00 40° SSE 02:19:05 40° SSE visible
23 Dec -0.9 22:09:15 10° WSW 22:11:49 20° SSW 22:14:24 10° SSE visible
23 Dec -0.6 23:47:22 10° SSW 23:49:16 14° S 23:51:11 10° SE visible
24 Dec -1.7 01:23:41 10° SW 01:26:37 27° SSE 01:27:05 26° SE visible
24 Dec -0.7 22:54:47 10° SW 22:56:40 14° S 22:58:35 10° SSE visible
25 Dec -1.1 00:31:33 10° SSW 00:34:08 20° SSE 00:35:44 15° SE visible
25 Dec -1.2 02:07:38 10° SW 02:08:19 15° SW 02:08:19 15° SW visible
25 Dec -0.8 22:01:58 10° SW 22:04:05 15° S 22:06:12 10° SSE visible
25 Dec -0.8 23:39:21 10° SSW 23:41:35 16° SSE 23:43:47 10° SE visible
26 Dec -1.8 01:15:25 10° SW 01:17:16 28° SSW 01:17:16 28° SSW visible
26 Dec -0.8 22:47:02 10° SSW 22:48:58 14° S 22:50:56 10° SE visible
